TimeEET,TemperatureF,Dew PointF,Humidity,Sea Level PressureIn,VisibilityMPH,Wind Direction,Wind SpeedMPH,Gust SpeedMPH,PrecipitationIn,Events,Conditions,WindDirDegrees,DateUTC
1:50 AM,51.8,50.0,94,30.06,-9999.0,NW,3.5,-,N/A,,Clear,320,2012-11-04 23:50:00
4:50 AM,51.8,48.2,88,30.04,-9999.0,NW,4.6,-,N/A,,Clear,310,2012-11-05 02:50:00
5:20 AM,51.8,48.2,88,30.04,6.2,NNW,6.9,-,N/A,,Scattered Clouds,330,2012-11-05 03:20:00
5:50 AM,51.8,48.2,88,30.01,6.2,NNW,4.6,-,N/A,,Scattered Clouds,340,2012-11-05 03:50:00
6:20 AM,51.8,48.2,88,30.01,6.2,NNW,4.6,-,N/A,,Scattered Clouds,340,2012-11-05 04:20:00
6:50 AM,51.8,48.2,88,30.04,6.2,NNW,5.8,-,N/A,,Scattered Clouds,340,2012-11-05 04:50:00
7:20 AM,51.8,48.2,88,30.04,6.2,NNW,4.6,-,N/A,,Scattered Clouds,330,2012-11-05 05:20:00
7:50 AM,53.6,50.0,88,30.04,6.2,NW,4.6,-,N/A,,Mostly Cloudy,320,2012-11-05 05:50:00
8:20 AM,53.6,50.0,88,30.06,6.2,NNW,5.8,-,N/A,,Mostly Cloudy,340,2012-11-05 06:20:00
8:50 AM,55.4,51.8,88,30.06,6.2,NNW,4.6,-,N/A,,Mostly Cloudy,330,2012-11-05 06:50:00
9:20 AM,62.6,53.6,72,30.06,6.2,NW,4.6,-,N/A,,Mostly Cloudy,310,2012-11-05 07:20:00
9:50 AM,66.2,57.2,73,30.06,6.2,NW,4.6,-,N/A,,Mostly Cloudy,320,2012-11-05 07:50:00
10:20 AM,68.0,57.2,68,30.06,6.2,NW,4.6,-,N/A,,Mostly Cloudy,310,2012-11-05 08:20:00
10:50 AM,71.6,57.2,60,30.06,6.2,NW,4.6,-,N/A,,Mostly Cloudy,320,2012-11-05 08:50:00
11:20 AM,73.4,55.4,53,30.04,6.2,North,4.6,-,N/A,,Mostly Cloudy,10,2012-11-05 09:20:00
11:50 AM,75.2,55.4,50,30.04,6.2,North,4.6,-,N/A,,Mostly Cloudy,10,2012-11-05 09:50:00
12:20 PM,73.4,55.4,53,30.01,6.2,Calm,Calm,-,N/A,,Mostly Cloudy,0,2012-11-05 10:20:00
12:50 PM,75.2,55.4,50,30.01,6.2,Calm,Calm,-,N/A,,Mostly Cloudy,0,2012-11-05 10:50:00
1:20 PM,75.2,57.2,53,30.01,6.2,Calm,Calm,-,N/A,,Mostly Cloudy,0,2012-11-05 11:20:00
1:50 PM,75.2,57.2,53,30.01,6.2,Calm,Calm,-,N/A,,Mostly Cloudy,0,2012-11-05 11:50:00
2:20 PM,73.4,57.2,57,30.01,6.2,Calm,Calm,-,N/A,,Mostly Cloudy,0,2012-11-05 12:20:00
2:50 PM,73.4,59.0,61,30.01,6.2,Calm,Calm,-,N/A,,Mostly Cloudy,0,2012-11-05 12:50:00
3:20 PM,75.2,59.0,57,29.98,6.2,Calm,Calm,-,N/A,,Mostly Cloudy,0,2012-11-05 13:20:00
3:50 PM,71.6,59.0,64,30.01,6.2,Calm,Calm,-,N/A,,Mostly Cloudy,0,2012-11-05 13:50:00
4:20 PM,71.6,59.0,64,30.01,6.2,Calm,Calm,-,N/A,,Mostly Cloudy,0,2012-11-05 14:20:00
4:50 PM,69.8,59.0,68,29.98,6.2,Calm,Calm,-,N/A,,Overcast,0,2012-11-05 14:50:00
5:20 PM,69.8,60.8,73,30.01,6.2,Calm,Calm,-,N/A,,Overcast,0,2012-11-05 15:20:00
5:50 PM,69.8,60.8,73,30.01,6.2,Calm,Calm,-,N/A,,Overcast,0,2012-11-05 15:50:00
6:20 PM,68.0,60.8,78,30.01,6.2,Calm,Calm,-,N/A,,Overcast,0,2012-11-05 16:20:00
6:50 PM,68.0,60.8,78,30.01,6.2,Calm,Calm,-,N/A,,Mostly Cloudy,0,2012-11-05 16:50:00
7:20 PM,68.0,60.8,78,30.01,6.2,Calm,Calm,-,N/A,,Mostly Cloudy,0,2012-11-05 17:20:00
7:50 PM,66.2,60.8,83,30.04,6.2,Calm,Calm,-,N/A,,Mostly Cloudy,0,2012-11-05 17:50:00
10:50 PM,64.4,60.8,88,30.01,6.2,Calm,Calm,-,N/A,,Partly Cloudy,0,2012-11-05 20:50:00